Jupiter Spirit — A8ZC2 — position and weather

sailwx.info

Track history (hours):
 
Tides and Currents Weather Stations Pressure Air Temp Water Temp Dewpoint Dewpoint Depression Visibility Wind Speed Wind Dir Waves Ship Positions

Jupiter Spirit

Last reported at 2015-May-04 17:13 UTC. Time now 2015-May-04 20:07 UTC.
Position N 37°17' E 008°36'.

Length 183 m; draft 8.6 m.

Type: Cargo ship. MMSI: 636015173.

Date/timePositionNaut miles runAvg speedWind from/ knotsBaromVisibWave heightAir tempDewpointWater temp
2015-May-04 17:13N 37°17' E 008°36'18114.3
2015-May-04 04:31N 37°00' E 004°49'19014.4
2015-May-03 15:22N 36°35' E 000°55'1214.5
2015-May-03 14:33N 36°31' E 000°41'1514.7
2015-May-03 13:33N 36°25' E 000°24'4914.6
2015-May-03 10:10N 36°08' W 000°33'914.1
2015-May-03 09:33N 36°08' W 000°44'1714.3
2015-May-03 08:22N 36°07' W 001°05'1114.2
2015-May-03 07:34N 36°07' W 001°19'1716.7
2015-May-03 06:31N 36°06' W 001°41'1313.9
2015-May-03 05:34N 36°06' W 001°57'1615.5
2015-May-03 04:30N 36°05' W 002°17'1515.8
2015-May-03 03:33N 36°05' W 002°36'12615.5
2015-May-02 19:27N 36°00' W 005°11'1314.7
2015-May-02 18:34N 35°58' W 005°27'7814.8
2015-May-02 13:16N 36°05' W 007°03'1114.4
2015-May-02 12:30N 36°08' W 007°17'1814.5
2015-May-02 11:14N 36°13' W 007°39'1414.4
2015-May-02 10:15N 36°17' W 007°55'1014.5
2015-May-02 09:32N 36°19' W 008°08'1414.4
2015-May-02 08:34N 36°23' W 008°25'1615.6
2015-May-02 07:33N 36°27' W 008°43'1515.5
2015-May-02 06:34N 36°31' W 009°02'1413.9
2015-May-02 05:33N 36°35' W 009°19'1414.5
2015-May-02 04:33N 36°45' W 009°31'1514.7
2015-May-02 03:33N 36°59' W 009°37'1515.2
2015-May-02 02:33N 37°14' W 009°41'1515.3
2015-May-02 01:33N 37°29' W 009°46'1515.3
2015-May-02 00:33N 37°44' W 009°50'1515.3
2015-May-01 23:33N 37°59' W 009°54'1515.2
2015-May-01 22:33N 38°13' W 009°59'1515.3
2015-May-01 21:33N 38°28' W 010°03'1514.9
2015-May-01 20:33N 38°43' W 010°07'1515.4
2015-May-01 19:33N 38°58' W 010°07'1515.2
2015-May-01 18:33N 39°14' W 010°07'71514.0
2015-Apr-29 15:34N 50°10' W 003°30'1413.7
2015-Apr-29 14:34N 50°24' W 003°25'1212.1
2015-Apr-29 13:33N 50°26' W 003°06'1616.3
2015-Apr-29 12:33N 50°27' W 002°41'1717.3
2015-Apr-29 11:33N 50°28' W 002°14'1817.8
2015-Apr-29 10:33N 50°28' W 001°45'1817.3
2015-Apr-29 09:32N 50°29' W 001°18'1716.8
2015-Apr-29 08:33N 50°30' W 000°52'4414.8
2015-Apr-29 05:33N 50°36' E 000°17'1414.0
2015-Apr-29 04:33N 50°41' E 000°38'1515.0
2015-Apr-29 03:33N 50°49' E 000°58'1615.9
2015-Apr-29 02:33N 50°59' E 001°18'1616.0
2015-Apr-29 01:34N 51°09' E 001°37'1515.0
2015-Apr-29 00:34N 51°21' E 001°52'1414.2
2015-Apr-28 23:33N 51°32' E 002°05'1514.6
2015-Apr-28 22:32N 51°44' E 002°21'11015.2
2015-Apr-28 15:17N 53°08' E 004°18'1414.1
2015-Apr-28 14:17N 53°20' E 004°31'1013.7
2015-Apr-28 13:33N 53°28' E 004°39'1413.8
2015-Apr-28 12:33N 53°34' E 005°00'1414.3
2015-Apr-28 11:34N 53°38' E 005°23'1515.4
2015-Apr-28 10:33N 53°43' E 005°48'1816.0
2015-Apr-28 09:28N 53°49' E 006°16'3516.0
2015-Apr-28 07:16N 53°58' E 007°14'1115.5
2015-Apr-28 06:33N 54°00' E 007°32'1414.1
2015-Apr-28 05:33N 53°52' E 007°52'1212.2
2015-Apr-28 04:34N 53°47' E 008°10'1312.8
2015-Apr-28 03:33N 53°38' E 008°27'5 5.3
2015-Apr-28 02:33N 53°34' E 008°33'0 0.5
2015-Apr-28 01:33N 53°35' E 008°33'0 0.0
2015-Apr-28 00:33N 53°35' E 008°33'0 0.0
2015-Apr-27 23:33N 53°35' E 008°33'0 0.0
2015-Apr-27 22:33N 53°35' E 008°33'0 0.0
2015-Apr-27 21:33N 53°35' E 008°33'0 0.0
2015-Apr-27 20:33N 53°35' E 008°33'0 0.0
2015-Apr-27 19:33N 53°35' E 008°33'0 0.0
2015-Apr-27 18:33N 53°35' E 008°33'0 0.0
2015-Apr-27 17:33N 53°35' E 008°33'0 0.0
2015-Apr-27 16:33N 53°35' E 008°33'0 0.0
2015-Apr-27 15:33N 53°35' E 008°33'0 0.0
2015-Apr-27 14:33N 53°35' E 008°33'0 0.0
2015-Apr-27 13:33N 53°35' E 008°33'0 0.0
2015-Apr-27 12:33N 53°35' E 008°33'0 0.0
2015-Apr-27 11:30N 53°35' E 008°33'0 0.0
2015-Apr-27 10:33N 53°35' E 008°33'0 0.0
2015-Apr-27 09:33N 53°35' E 008°33'0 0.0
2015-Apr-27 08:33N 53°35' E 008°33'0 0.0
2015-Apr-27 07:33N 53°35' E 008°33'0 0.0
2015-Apr-27 06:33N 53°35' E 008°33'0 0.0
2015-Apr-27 05:33N 53°35' E 008°33'0 0.0
2015-Apr-27 04:33N 53°35' E 008°33'0 0.0
2015-Apr-27 03:33N 53°35' E 008°33'0 0.0
2015-Apr-27 02:33N 53°35' E 008°33'0 0.0
2015-Apr-27 01:30N 53°35' E 008°33'0 0.5
2015-Apr-27 00:33N 53°34' E 008°33'2 1.8
2015-Apr-26 23:33N 53°36' E 008°31'1414.1
2015-Apr-26 22:33N 53°45' E 008°13'1414.1
2015-Apr-26 21:33N 53°52' E 007°53'8 7.6
2015-Apr-26 20:33N 54°00' E 007°53'9 9.1
2015-Apr-26 19:33N 54°01' E 008°09'1717.0
2015-Apr-26 18:33N 53°57' E 008°37'1111.1
2015-Apr-26 17:33N 53°50' E 008°52'1212.2
2015-Apr-26 16:33N 53°53' E 009°12'1110.6
2015-Apr-26 15:33N 53°45' E 009°24'1212.4
2015-Apr-26 14:33N 53°35' E 009°37'1111.1
2015-Apr-26 13:33N 53°32' E 009°55'2 1.8
2015-Apr-26 12:28N 53°31' E 009°58'0 0.0
2015-Apr-26 11:31N 53°31' E 009°58'0 0.0
2015-Apr-26 10:31N 53°31' E 009°58'0 0.0
2015-Apr-26 09:28N 53°31' E 009°58'0 0.0
2015-Apr-26 08:31N 53°31' E 009°58'0 0.0
2015-Apr-26 07:31N 53°31' E 009°58'0 0.0
2015-Apr-26 06:31N 53°31' E 009°58'0 0.0
2015-Apr-26 05:31N 53°31' E 009°58'0 0.0
2015-Apr-26 04:18N 53°31' E 009°58'0 0.0
2015-Apr-26 03:30N 53°31' E 009°58'2 1.9
2015-Apr-26 02:33N 53°32' E 009°55'9 8.8
2015-Apr-26 01:34N 53°34' E 009°41'1312.8
2015-Apr-26 00:34N 53°44' E 009°27'1313.4
2015-Apr-25 23:34N 53°53' E 009°10'1010.3
2015-Apr-25 22:34N 53°50' E 008°53'1212.4
2015-Apr-25 21:33N 53°58' E 008°36'1514.5
2015-Apr-25 20:33N 53°60' E 008°11'1313.0
2015-Apr-25 19:33N 53°57' E 007°50'1413.8
2015-Apr-25 18:33N 53°54' E 007°27'1414.0
2015-Apr-25 17:33N 53°51' E 007°04'3114.4
2015-Apr-25 15:25N 53°42' E 006°14'1314.8
2015-Apr-25 14:33N 53°39' E 005°53'1515.4
2015-Apr-25 13:34N 53°35' E 005°28'1615.6
2015-Apr-25 12:34N 53°30' E 005°03'1515.1
2015-Apr-25 11:33N 53°22' E 004°41'1616.0
2015-Apr-25 10:33N 53°07' E 004°32'1916.6
2015-Apr-25 09:26N 52°49' E 004°24'1415.8
2015-Apr-25 08:33N 52°35' E 004°22'1111.0
2015-Apr-25 07:33N 52°28' E 004°36'3 2.9
2015-Apr-25 06:33N 52°27' E 004°41'6 5.9
2015-Apr-25 05:34N 52°24' E 004°49'0 0.0
2015-Apr-25 04:33N 52°24' E 004°49'0 0.0
2015-Apr-25 03:33N 52°24' E 004°49'0 0.0
2015-Apr-25 02:33N 52°24' E 004°49'0 0.0
2015-Apr-25 01:33N 52°24' E 004°49'0 0.0
2015-Apr-25 00:33N 52°24' E 004°49'0 0.0
2015-Apr-24 23:33N 52°24' E 004°49'0 0.0
2015-Apr-24 22:33N 52°24' E 004°49'0 0.0
2015-Apr-24 21:33N 52°24' E 004°49'0 0.0
2015-Apr-24 20:33N 52°24' E 004°49'0 0.0
2015-Apr-24 19:33N 52°24' E 004°49'0 0.0
2015-Apr-24 18:33N 52°24' E 004°49'0 0.0
2015-Apr-24 17:33N 52°24' E 004°49'  
Track history (hours):
 
Tides and Currents Weather Stations Pressure Air Temp Water Temp Dewpoint Dewpoint Depression Visibility Wind Speed Wind Dir Waves Ship Positions

Jupiter Spirit

Last reported at 2015-May-04 17:13 UTC. Time now 2015-May-04 20:07 UTC.
Position N 37°17' E 008°36'.

Length 183 m; draft 8.6 m.

Type: Cargo ship. MMSI: 636015173.

Date/timePositionNaut miles runAvg speedWind from/ knotsBaromVisibWave heightAir tempDewpointWater temp
2015-May-04 17:13N 37°17' E 008°36'18114.3
2015-May-04 04:31N 37°00' E 004°49'19014.4
2015-May-03 15:22N 36°35' E 000°55'1214.5
2015-May-03 14:33N 36°31' E 000°41'1514.7
2015-May-03 13:33N 36°25' E 000°24'4914.6
2015-May-03 10:10N 36°08' W 000°33'914.1
2015-May-03 09:33N 36°08' W 000°44'1714.3
2015-May-03 08:22N 36°07' W 001°05'1114.2
2015-May-03 07:34N 36°07' W 001°19'1716.7
2015-May-03 06:31N 36°06' W 001°41'1313.9
2015-May-03 05:34N 36°06' W 001°57'1615.5
2015-May-03 04:30N 36°05' W 002°17'1515.8
2015-May-03 03:33N 36°05' W 002°36'12615.5
2015-May-02 19:27N 36°00' W 005°11'1314.7
2015-May-02 18:34N 35°58' W 005°27'7814.8
2015-May-02 13:16N 36°05' W 007°03'1114.4
2015-May-02 12:30N 36°08' W 007°17'1814.5
2015-May-02 11:14N 36°13' W 007°39'1414.4
2015-May-02 10:15N 36°17' W 007°55'1014.5
2015-May-02 09:32N 36°19' W 008°08'1414.4
2015-May-02 08:34N 36°23' W 008°25'1615.6
2015-May-02 07:33N 36°27' W 008°43'1515.5
2015-May-02 06:34N 36°31' W 009°02'1413.9
2015-May-02 05:33N 36°35' W 009°19'1414.5
2015-May-02 04:33N 36°45' W 009°31'1514.7
2015-May-02 03:33N 36°59' W 009°37'1515.2
2015-May-02 02:33N 37°14' W 009°41'1515.3
2015-May-02 01:33N 37°29' W 009°46'1515.3
2015-May-02 00:33N 37°44' W 009°50'1515.3
2015-May-01 23:33N 37°59' W 009°54'1515.2
2015-May-01 22:33N 38°13' W 009°59'1515.3
2015-May-01 21:33N 38°28' W 010°03'1514.9
2015-May-01 20:33N 38°43' W 010°07'1515.4
2015-May-01 19:33N 38°58' W 010°07'1515.2
2015-May-01 18:33N 39°14' W 010°07'71514.0
2015-Apr-29 15:34N 50°10' W 003°30'1413.7
2015-Apr-29 14:34N 50°24' W 003°25'1212.1
2015-Apr-29 13:33N 50°26' W 003°06'1616.3
2015-Apr-29 12:33N 50°27' W 002°41'1717.3
2015-Apr-29 11:33N 50°28' W 002°14'1817.8
2015-Apr-29 10:33N 50°28' W 001°45'1817.3
2015-Apr-29 09:32N 50°29' W 001°18'1716.8
2015-Apr-29 08:33N 50°30' W 000°52'4414.8
2015-Apr-29 05:33N 50°36' E 000°17'1414.0
2015-Apr-29 04:33N 50°41' E 000°38'1515.0
2015-Apr-29 03:33N 50°49' E 000°58'1615.9
2015-Apr-29 02:33N 50°59' E 001°18'1616.0
2015-Apr-29 01:34N 51°09' E 001°37'1515.0
2015-Apr-29 00:34N 51°21' E 001°52'1414.2
2015-Apr-28 23:33N 51°32' E 002°05'1514.6
2015-Apr-28 22:32N 51°44' E 002°21'11015.2
2015-Apr-28 15:17N 53°08' E 004°18'1414.1
2015-Apr-28 14:17N 53°20' E 004°31'1013.7
2015-Apr-28 13:33N 53°28' E 004°39'1413.8
2015-Apr-28 12:33N 53°34' E 005°00'1414.3
2015-Apr-28 11:34N 53°38' E 005°23'1515.4
2015-Apr-28 10:33N 53°43' E 005°48'1816.0
2015-Apr-28 09:28N 53°49' E 006°16'3516.0
2015-Apr-28 07:16N 53°58' E 007°14'1115.5
2015-Apr-28 06:33N 54°00' E 007°32'1414.1
2015-Apr-28 05:33N 53°52' E 007°52'1212.2
2015-Apr-28 04:34N 53°47' E 008°10'1312.8
2015-Apr-28 03:33N 53°38' E 008°27'5 5.3
2015-Apr-28 02:33N 53°34' E 008°33'0 0.5
2015-Apr-28 01:33N 53°35' E 008°33'0 0.0
2015-Apr-28 00:33N 53°35' E 008°33'0 0.0
2015-Apr-27 23:33N 53°35' E 008°33'0 0.0
2015-Apr-27 22:33N 53°35' E 008°33'0 0.0
2015-Apr-27 21:33N 53°35' E 008°33'0 0.0
2015-Apr-27 20:33N 53°35' E 008°33'0 0.0
2015-Apr-27 19:33N 53°35' E 008°33'0 0.0
2015-Apr-27 18:33N 53°35' E 008°33'0 0.0
2015-Apr-27 17:33N 53°35' E 008°33'0 0.0
2015-Apr-27 16:33N 53°35' E 008°33'0 0.0
2015-Apr-27 15:33N 53°35' E 008°33'0 0.0
2015-Apr-27 14:33N 53°35' E 008°33'0 0.0
2015-Apr-27 13:33N 53°35' E 008°33'0 0.0
2015-Apr-27 12:33N 53°35' E 008°33'0 0.0
2015-Apr-27 11:30N 53°35' E 008°33'0 0.0
2015-Apr-27 10:33N 53°35' E 008°33'0 0.0
2015-Apr-27 09:33N 53°35' E 008°33'0 0.0
2015-Apr-27 08:33N 53°35' E 008°33'0 0.0
2015-Apr-27 07:33N 53°35' E 008°33'0 0.0
2015-Apr-27 06:33N 53°35' E 008°33'0 0.0
2015-Apr-27 05:33N 53°35' E 008°33'0 0.0
2015-Apr-27 04:33N 53°35' E 008°33'0 0.0
2015-Apr-27 03:33N 53°35' E 008°33'0 0.0
2015-Apr-27 02:33N 53°35' E 008°33'0 0.0
2015-Apr-27 01:30N 53°35' E 008°33'0 0.5
2015-Apr-27 00:33N 53°34' E 008°33'2 1.8
2015-Apr-26 23:33N 53°36' E 008°31'1414.1
2015-Apr-26 22:33N 53°45' E 008°13'1414.1
2015-Apr-26 21:33N 53°52' E 007°53'8 7.6
2015-Apr-26 20:33N 54°00' E 007°53'9 9.1
2015-Apr-26 19:33N 54°01' E 008°09'1717.0
2015-Apr-26 18:33N 53°57' E 008°37'1111.1
2015-Apr-26 17:33N 53°50' E 008°52'1212.2
2015-Apr-26 16:33N 53°53' E 009°12'1110.6
2015-Apr-26 15:33N 53°45' E 009°24'1212.4
2015-Apr-26 14:33N 53°35' E 009°37'1111.1
2015-Apr-26 13:33N 53°32' E 009°55'2 1.8
2015-Apr-26 12:28N 53°31' E 009°58'0 0.0
2015-Apr-26 11:31N 53°31' E 009°58'0 0.0
2015-Apr-26 10:31N 53°31' E 009°58'0 0.0
2015-Apr-26 09:28N 53°31' E 009°58'0 0.0
2015-Apr-26 08:31N 53°31' E 009°58'0 0.0
2015-Apr-26 07:31N 53°31' E 009°58'0 0.0
2015-Apr-26 06:31N 53°31' E 009°58'0 0.0
2015-Apr-26 05:31N 53°31' E 009°58'0 0.0
2015-Apr-26 04:18N 53°31' E 009°58'0 0.0
2015-Apr-26 03:30N 53°31' E 009°58'2 1.9
2015-Apr-26 02:33N 53°32' E 009°55'9 8.8
2015-Apr-26 01:34N 53°34' E 009°41'1312.8
2015-Apr-26 00:34N 53°44' E 009°27'1313.4
2015-Apr-25 23:34N 53°53' E 009°10'1010.3
2015-Apr-25 22:34N 53°50' E 008°53'1212.4
2015-Apr-25 21:33N 53°58' E 008°36'1514.5
2015-Apr-25 20:33N 53°60' E 008°11'1313.0
2015-Apr-25 19:33N 53°57' E 007°50'1413.8
2015-Apr-25 18:33N 53°54' E 007°27'1414.0
2015-Apr-25 17:33N 53°51' E 007°04'3114.4
2015-Apr-25 15:25N 53°42' E 006°14'1314.8
2015-Apr-25 14:33N 53°39' E 005°53'1515.4
2015-Apr-25 13:34N 53°35' E 005°28'1615.6
2015-Apr-25 12:34N 53°30' E 005°03'1515.1
2015-Apr-25 11:33N 53°22' E 004°41'1616.0
2015-Apr-25 10:33N 53°07' E 004°32'1916.6
2015-Apr-25 09:26N 52°49' E 004°24'1415.8
2015-Apr-25 08:33N 52°35' E 004°22'1111.0
2015-Apr-25 07:33N 52°28' E 004°36'3 2.9
2015-Apr-25 06:33N 52°27' E 004°41'6 5.9
2015-Apr-25 05:34N 52°24' E 004°49'0 0.0
2015-Apr-25 04:33N 52°24' E 004°49'0 0.0
2015-Apr-25 03:33N 52°24' E 004°49'0 0.0
2015-Apr-25 02:33N 52°24' E 004°49'0 0.0
2015-Apr-25 01:33N 52°24' E 004°49'0 0.0
2015-Apr-25 00:33N 52°24' E 004°49'0 0.0
2015-Apr-24 23:33N 52°24' E 004°49'0 0.0
2015-Apr-24 22:33N 52°24' E 004°49'0 0.0
2015-Apr-24 21:33N 52°24' E 004°49'0 0.0
2015-Apr-24 20:33N 52°24' E 004°49'0 0.0
2015-Apr-24 19:33N 52°24' E 004°49'0 0.0
2015-Apr-24 18:33N 52°24' E 004°49'0 0.0
2015-Apr-24 17:33N 52°24' E 004°49'  

Dump ship's entire track history